Location: Red Deer
(52.2681°N, 113.8112°W)
Time: 01:30:38
(UTC-06:00)

Envisat - Pass Details

Date: 30 April 2024
Orbit: 762 x 764 km, 98.3° (Epoch: 20 May)

Event Time Altitude Azimuth Distance (km) Brightness Sun altitude
Rises 03:20:01 0° 30° (NNE) 3,238 7.9 -18.8°
Reaches altitude 10° 03:24:03 10° 62° (ENE) 2,305 6.3 -18.5°
Maximum altitude 03:25:52 12° 83° (E) 2,177 5.8 -18.4°
Drops below altitude 10° 03:27:41 10° 105° (ESE) 2,298 5.6 -18.3°
Sets 03:31:40 0° 136° (SE) 3,216 6.1 -18.0°
